Location: 5810 Zion Rd, Cleves, OH 45002, USA
(39.1922°N, 84.7113°W)
Time: 19:46:38
(UTC-05:00)

Vanguard 1 - Visible Passes

Search period start: 15 December 2019 00:00
Search period end: 25 December 2019 00:00
Orbit: 651 x 3832 km, 34.3° (Epoch: 14 December)

Date Brightness Start Highest point End Pass type
(mag) Time Alt. Az. Time Alt. Az. Time Alt. Az.
15 Dec 13.4 02:00:45 39° ESE 02:00:45 39° ESE 02:16:47 10° E visible
15 Dec 12.9 04:13:29 50° SW 04:21:43 69° SSE 04:42:14 10° E visible
15 Dec 12.8 06:26:13 13° W 06:48:36 76° S 07:04:56 10° ESE visible
16 Dec 13.2 02:20:46 47° SE 02:20:46 47° SE 02:38:37 10° E visible
16 Dec 12.8 04:33:30 47° WSW 04:43:15 73° SSE 05:03:33 10° E visible
16 Dec 12.8 06:46:33 10° W 07:10:04 73° SSW 07:25:55 10° ESE visible
17 Dec 14.1 00:27:58 15° E 00:27:58 15° E 00:31:29 10° E visible
17 Dec 13.0 02:40:41 56° SE 02:40:41 56° SE 03:00:15 10° E visible
17 Dec 12.8 04:53:25 42° WSW 05:04:51 76° S 05:24:50 10° E visible
17 Dec 12.9 07:08:15 10° W 07:31:24 68° SSW 07:46:47 10° ESE visible
18 Dec 13.9 00:47:50 20° E 00:47:50 20° E 00:54:14 10° E visible
18 Dec 12.8 03:00:33 63° SE 03:00:33 63° SE 03:21:48 10° E visible
18 Dec 12.8 05:13:16 37° WSW 05:26:30 77° S 05:46:04 10° E visible
19 Dec 13.7 01:07:38 26° E 01:07:38 26° E 01:16:29 10° E visible
19 Dec 12.7 03:20:20 70° SSE 03:20:47 70° SSE 03:43:17 10° E visible
19 Dec 12.9 05:33:03 31° W 05:48:07 76° S 06:07:14 10° ESE visible
20 Dec 13.5 01:27:24 33° E 01:27:24 33° E 01:38:26 10° E visible
20 Dec 12.7 03:40:05 71° SSW 03:42:18 74° SSE 04:04:44 10° E visible
20 Dec 12.9 05:52:48 26° W 06:09:41 73° SSW 06:28:18 10° ESE visible
21 Dec 13.4 01:47:06 40° E 01:47:06 40° E 02:00:12 10° E visible
21 Dec 12.6 03:59:48 67° SW 04:03:55 76° S 04:26:08 10° E visible
21 Dec 12.9 06:12:31 21° W 06:31:07 69° SSW 06:49:15 10° ESE visible
22 Dec 13.2 02:06:47 47° ESE 02:06:47 47° ESE 02:21:52 10° E visible
22 Dec 12.7 04:19:30 61° WSW 04:25:34 77° S 04:47:30 10° E visible
22 Dec 13.0 06:32:12 16° W 06:52:25 63° SSW 07:10:02 10° SE visible
23 Dec 14.1 00:13:46 13° E 00:13:46 13° E 00:15:29 10° E visible
23 Dec 13.0 02:26:28 55° ESE 02:26:28 55° ESE 02:43:29 10° E visible
23 Dec 12.7 04:39:10 53° WSW 04:47:13 76° S 05:08:47 10° ESE visible
23 Dec 13.1 06:51:52 12° W 07:13:32 56° SSW 07:30:36 10° SE visible
24 Dec 14.0 00:33:26 18° E 00:33:26 18° E 00:37:31 10° E visible
24 Dec 12.8 02:46:08 63° ESE 02:46:08 63° ESE 03:05:04 10° E visible
24 Dec 12.8 04:58:50 46° W 05:08:49 74° SSW 05:29:58 10° ESE visible
24 Dec 13.2 07:12:46 10° W 07:34:27 48° SW 07:50:54 10° SSE visible
